Regional Weather Roundup
Issued by NWS

Home | Current Version | Previous Version | Graphics & Text | Print | Product List | Glossary On
Versions: 1 2 3 4 5 6 7 8 9 10 11 12 13 14 15 16 17 18 19 20 21 22 23 24 25 26 27 28 29 30 31 32 33 34 35 36 37 38 39 40 41 42 43 44 45 46 47 48 49 50
000
ASUS43 KMKX 252311
RWRWI

WISCONSIN REGIONAL WEATHER ROUNDUP
NATIONAL WEATHER SERVICE MILWAUKEE/SULLIVAN WI
600 PM CDT SAT OCT 25 2014

NOTE: "FAIR" INDICATES FEW OR NO CLOUDS BELOW 12,000 FEET WITH NO
SIGNIFICANT WEATHER AND/OR OBSTRUCTIONS TO VISIBILITY.

WIZ001-002-006>008-014>016-023>028-260000-
NORTHWEST WISCONSIN

CITY           SKY/WX    TMP DP  RH WIND       PRES   REMARKS
SUPERIOR ARPT  CLEAR     55  26  32 NW14G22   29.96S
ASHLAND        CLEAR     55  26  32 W13G29    29.93R
HAYWARD        CLEAR     57  21  24 NW7G17    29.95R
SIREN          CLEAR     56  22  26 NW10G17   29.99R
CUMBERLAND     CLEAR     54  21  28 W13G20    29.98S
RICE LAKE      CLEAR     56  24  28 W9        29.99S
CHETEK         CLEAR     57  24  28 W9G20     29.97S
LADYSMITH      CLEAR     56  24  28 W12       29.95S
EAU CLAIRE     CLEAR     58  25  28 W13       29.97S
MENOMONIE      CLEAR     59  24  26 W12       29.99S
NEW RICHMOND   CLEAR     57  24  27 W10G18    30.02S
OSCEOLA        CLEAR     58  25  27 W10G16    30.04S
$$

WIZ003>005-009-010-017-018-260000-
NORTH CENTRAL WISCONSIN

CITY           SKY/WX    TMP DP  RH WIND       PRES   REMARKS
MANITOWISH WTR CLEAR     52  23  32 NW9G22    29.89R
ARBOR VITAE    CLEAR     56  22  26 NW10      29.88R
WOODRUFF       CLEAR     56  22  26 NW10      29.88R
RHINELANDER    CLEAR     54  20  26 NW14G22   29.88R
EAGLE RIVER    CLEAR     53  18  24 NW14G22   29.85S
LAND O LAKES   CLEAR     54  20  27 NW14G26   29.85S
PHILLIPS       CLEAR     55  21  26 NW10G21   29.90S
TOMAHAWK       CLEAR     54  20  26 NW13G18   29.90R
MEDFORD        CLEAR     54  27  34 W12       29.92R
MERRILL        CLEAR     56  23  27 NW15G25   29.89R
$$

WIZ029-030-035-036-043>047-260000-
CENTRAL WISCONSIN

CITY           SKY/WX    TMP DP  RH WIND       PRES   REMARKS
WAUSAU         CLEAR     57  25  29 W15G24    29.89R
MOSINEE        CLEAR     55  28  35 W17G25    29.91R
MARSHFIELD     CLEAR     56  28  34 W12G21    29.93R
STEVENS POINT  CLEAR     55  28  35 W9        29.92R
WAUPACA        CLEAR     60  25  26 W13G18    29.91R
WAUTOMA        CLOUDY    59  27  29 W13       29.93R
WISC RAPIDS    CLEAR     58  27  30 W10       29.94R
CAMP DOUGLAS   NOT AVBL
$$

WIZ011>013-019>022-031-037>040-048>050-260000-
NORTHEAST WISCONSIN

CITY           SKY/WX    TMP DP  RH WIND       PRES   REMARKS
ANTIGO         CLEAR     54  25  31 NW20G25   29.87S
SHAWANO        CLEAR     61  25  25 W8        29.86R
OCONTO         CLEAR     58  27  30 W8        29.82R
STURGEON BAY   CLEAR     59  28  31 NW17G24   29.81R
GREEN BAY      CLEAR     59  28  30 W10G23    29.85R
MANITOWOC      CLEAR     59  33  37 W14       29.84R
APPLETON       CLEAR     55  27  33 W20G28    29.88R
CLINTONVILLE   CLEAR     59  27  29 W14G20    29.87R
OSHKOSH        CLEAR     58  28  32 W13       29.89R
$$

WIZ032>034-041-042-053>061-260000-
SOUTHWEST WISCONSIN

CITY           SKY/WX    TMP DP  RH WIND       PRES   REMARKS
LA CROSSE      CLEAR     60  30  32 NW13      29.99R
SPARTA         CLEAR     59  24  25 W9        29.99R
VIROQUA        CLEAR     56  27  32 NW6       30.00R
BOSCOBEL       CLEAR     64  24  21 W9        29.99S
PRAIRIE DU CHI CLEAR     62  27  26 W7        30.00S
PLATTEVILLE    CLEAR     61  29  30 W9        30.00S
$$

WIZ056-057-062-063-064-067-068-260000-
SOUTH CENTRAL WISCONSIN

CITY           SKY/WX    TMP DP  RH WIND       PRES   REMARKS
REEDSBURG      CLEAR     58  29  33 W9        29.95R
BARABOO/DELLS  CLEAR     59  25  27 W10G18    29.95R
LONE ROCK      CLEAR     65  25  22 NW13      29.97R
MINERAL POINT  CLEAR     61  21  21 W8        29.98S
MADISON        CLEAR     62  25  24 NW9       29.94R
MIDDLETON      CLEAR     61  23  23 W10       29.95S
WATERTOWN      CLEAR     61  27  28 NW13G24   29.91S
MONROE         CLEAR     61  30  31 W14       29.96R
JANESVILLE     CLEAR     64  23  20 NW14G21   29.93S
$$

WIZ051-052-058>065-066-070>072-260000-
SOUTHEAST WISCONSIN

CITY           SKY/WX    TMP DP  RH WIND       PRES   REMARKS
MILWAUKEE      CLEAR     65  24  21 NW10      29.89R
WAUKESHA       CLEAR     61  27  27 W14G20    29.91R
MILWAUKEE/TIMM CLEAR     63  19  19 W16G23    29.89S
RACINE         CLEAR     64  26  23 W9        29.91R
BURLINGTON     CLEAR     59  27  28 W8        29.92R
KENOSHA        CLEAR     63  29  27 NW12G20   29.90R
FOND DU LAC    CLEAR     58  30  34 W13G18    29.90R
SHEBOYGAN      CLEAR     59  30  33 W14G21    29.87R
WEST BEND      CLEAR     59  23  25 W14G25    29.89R
JUNEAU         CLEAR     59  29  31 W7        29.92R
$$

LSZ147-162-260000-
LAKE SUPERIOR

STATION/POSITION TIME  TEMP    WIND        PRES    WAVE
                       AIR SEA DIR/SP/G            HT/PER
                 (UTC) (F)     (DEG/KT/KT) (MB)    (FT/S)
W MID LAKE BUOY  2250   50 46  270/ 16/ 19 1009.8R   4/ 5
DEVILS ISLAND    2300   54     280/ 19/ 22 1012.1R
PORT WING        2240   55     260/ 15/ 20 1013.5R
SAXON HARBOR     2200   60     280/ 13/ 21 1011.9R
$$

LMZ867-665-643>646-260000-
LAKE MICHIGAN

STATION/POSITION TIME  TEMP    WIND        PRES    WAVE
                       AIR SEA DIR/SP/G            HT/PER
                 (UTC) (F)     (DEG/KT/KT) (MB)    (FT/S)
CHAMBERS ISLAND  2200   62     300/  6/ 15 1008.1S
N MID LAKE BUOY  2250   56 51  310/ 16/ 19 1007.7R   3/ 5
NORTHPORT PIER   2200   60     300/ 10/ 17 1007.5S
SISTER BAY       2158          310/ 17/ 20   N/A
KEWAUNEE LAKESHO 2200   63     290/  7/ 14 1008.4R
SHEBOYGAN LAKESH 2300   62 51  280/ 12/ 14 1011.5R
PORT WASHINGTON  2200   66     290/ 14/ 25 1011.5
ATWATER BUOY     2300   62     280/ 12/ 14 1013.1R
MILWAUKEE LAKESH 2200   67     300/ 10/ 14   N/A
S MID LAKE BUOY  2250   58 54  280/ 12/ 14 1011.6R   1/ 3
KENOSHA   LAKESH 2300   66     290/ 12/ 18 1012.2R
$$

TC  - TEMPERATURE IN CELSIUS
VSB - VISIBILITY IN STATUTE MILES
WCI - WIND CHILL INDEX
HX  - HEAT INDEX




USA.gov is the U.S. government's official web portal to all federal, state and local government web resources and services.